Weather History for Phnom Penh, Cambodia

Change the Weather History Date:

Sunday, October 7, 2012

  Actual Average Record
Temperature  
Mean Temperature 78 °F -  
Max Temperature 82 °F 84 °F 93 °F (2010)
Min Temperature 73 °F 76 °F 73 °F (2012)
Cooling Degree Days 12    
Growing Degree Days 28 (Base 50)    
Moisture  
Dew Point 73 °F    
Average Humidity 83    
Maximum Humidity 94    
Minimum Humidity 70    
Precipitation  
Precipitation 0.00 in - - ()
Sea Level Pressure  
Sea Level Pressure 29.78 in    
Wind  
Wind Speed 4 mph ()    
Max Wind Speed 13 mph    
Max Gust Speed -    
Visibility 5.1 miles    
Events Rain    
Averages and records for this station are not official NWS values.
T = Trace of Precipitation, MM = Missing Value Source: Averaged Metar Reports

Daily Weather History Graph

Daily Weather History Graph

Search for Another Location

Airport:

Trip Planner

Search our weather history database for the weather conditions in past years. The results will help you decide how hot, cold, wet, or windy it might be!

Date:

Astronomy

Oct. 07, 2012 Rise Set
Actual Time 5:49 AM ICT 5:47 PM ICT
Civil Twilight 5:28 AM ICT 6:08 PM ICT
Nautical Twilight 5:03 AM ICT 6:32 PM ICT
Astronomical Twilight 4:39 AM ICT 6:57 PM ICT
Moon 11:09 PM ICT (10/7) 11:20 AM ICT (10/7)
Length of Visible Light 12h 39m
Length of Day
11h 57m
Waning Gibbous, 60% of the Moon is Illuminated
Oct 7
Waning Gibbous
Oct 8
Last Quarter
Oct 15
New
Oct 22
First Quarter
Oct 30
Full

Hourly Weather History & Observations

Time (ICT) Temp. Heat Index Dew Point Humidity Pressure Visibility Wind Dir Wind Speed Gust Speed Precip Events Conditions
6:00 AM 75.2 °F - 71.6 °F 89% 29.80 in 5.6 mi West 3.5 mph - N/A Rain Light Rain
7:00 AM 75 °F - 74 °F 94% 29.77 in 6 mi Calm Calm - -   Overcast
7:00 AM 75.2 °F - 71.6 °F 89% 29.80 in 5.0 mi West 4.6 mph - N/A Rain Light Rain
7:30 AM 75.2 °F - 71.6 °F 89% 29.83 in 5.0 mi West 4.6 mph - N/A Rain Light Rain
8:00 AM 77.0 °F - 71.6 °F 83% 29.83 in 5.0 mi West 4.6 mph - N/A Rain Light Rain
8:30 AM 77.0 °F - 71.6 °F 83% 29.83 in 4.3 mi WSW 8.1 mph - N/A Rain Light Rain
9:00 AM 77.0 °F - 73.4 °F 89% 29.83 in 4.3 mi WNW 4.6 mph - N/A Rain Light Rain
9:30 AM 77.0 °F - 73.4 °F 89% 29.83 in 4.3 mi West 6.9 mph - N/A Rain Light Rain
10:00 AM 78.8 °F - 73.4 °F 83% 29.83 in 4.3 mi West 4.6 mph - N/A Rain Light Rain
10:30 AM 78.8 °F - 73.4 °F 83% 29.83 in 4.3 mi West 6.9 mph - N/A Rain Light Rain
11:00 AM 80.6 °F 85.4 °F 73.4 °F 79% 29.80 in 5.0 mi WNW 6.9 mph - N/A Rain Light Rain
11:30 AM 78.8 °F - 73.4 °F 83% 29.80 in 5.0 mi WNW 6.9 mph - N/A Rain Light Rain
12:00 PM 78.8 °F - 73.4 °F 83% 29.80 in 5.0 mi WSW 9.2 mph - N/A Rain Light Rain
12:30 PM 78.8 °F - 73.4 °F 83% 29.77 in 5.0 mi WSW 5.8 mph - N/A Rain Light Rain
1:00 PM 80.6 °F 85.4 °F 73.4 °F 79% 29.74 in 6.2 mi Variable 3.5 mph - N/A   Scattered Clouds
2:00 PM 82.4 °F 87.2 °F 71.6 °F 70% 29.74 in 5.6 mi WNW 4.6 mph - N/A   Mostly Cloudy
2:30 PM 80.6 °F 85.4 °F 73.4 °F 79% 29.74 in 5.6 mi NNW 5.8 mph - N/A   Mostly Cloudy
3:00 PM 80.6 °F 85.4 °F 73.4 °F 79% 29.71 in 5.6 mi West 6.9 mph - N/A   Mostly Cloudy
3:30 PM 80.6 °F 84.6 °F 71.6 °F 74% 29.71 in 5.6 mi WNW 4.6 mph - N/A   Mostly Cloudy
4:00 PM 80.6 °F 84.6 °F 71.6 °F 74% 29.71 in 5.6 mi NNW 4.6 mph - N/A   Mostly Cloudy
4:30 PM 80.6 °F 85.4 °F 73.4 °F 79% 29.71 in 5.6 mi NNW 3.5 mph - N/A   Mostly Cloudy
5:00 PM 80.6 °F 84.6 °F 71.6 °F 74% 29.74 in 5.6 mi NW 4.6 mph - N/A   Mostly Cloudy
5:30 PM 80.6 °F 84.6 °F 71.6 °F 74% 29.74 in 4.3 mi ESE 3.5 mph - N/A Rain Rain
6:00 PM 80.6 °F 85.4 °F 73.4 °F 79% 29.74 in 5.0 mi ESE 3.5 mph - N/A   Mostly Cloudy
6:30 PM 80.6 °F 85.4 °F 73.4 °F 79% 29.74 in 5.0 mi SE 3.5 mph - N/A   Mostly Cloudy
7:00 PM 78.8 °F - 73.4 °F 83% 29.77 in 5.0 mi SE 3.5 mph - N/A   Mostly Cloudy
7:30 PM 78.8 °F - 75.2 °F 89% 29.77 in 5.0 mi SE 3.5 mph - N/A   Mostly Cloudy
8:00 PM 78.8 °F - 75.2 °F 89% 29.80 in 5.0 mi SSE 3.5 mph - N/A   Mostly Cloudy
8:30 PM 78.8 °F - 75.2 °F 89% 29.80 in 5.6 mi South 3.5 mph - N/A   Mostly Cloudy
9:00 PM 78.8 °F - 75.2 °F 89% 29.80 in 5.6 mi Calm Calm - N/A   Mostly Cloudy
9:30 PM 78.8 °F - 75.2 °F 89% 29.80 in 5.6 mi Calm Calm - N/A   Mostly Cloudy
10:00 PM 78.8 °F - 73.4 °F 83% 29.80 in 3.1 mi South 12.7 mph - N/A Rain Rain
10:30 PM 77.0 °F - 73.4 °F 89% 29.80 in 5.0 mi South 3.5 mph - N/A Rain Light Rain
11:00 PM 77.0 °F - 73.4 °F 89% 29.80 in 5.0 mi Calm Calm - N/A   Mostly Cloudy
11:30 PM 77.0 °F - 73.4 °F 89% 29.80 in 5.0 mi Calm Calm - N/A   Mostly Cloudy